Temp
28 24 22 24 25 26 27 27 27 28 30 29 29 29 29 31 32 32 34 33 33 31 30 30 29 27 26 26 25 24 23 22 22 21 20 20 20 20 20 20 19 19 20 20
25 23 26 28 28 28 28 27 26 28 29 29 27 27 29 30 29 32 33 34 34 34 33 29 28 27 27 26 25 25 24 23 22 22 21 21 20 20 20 20 20 19 20 20
25 27 30 30 29 29 27 26 27 27 29 28 27 26 26 29 31 32 33 33 34 34 34 29 27 27 27 26 26 26 25 24 23 22 21 20 20 20 19 20 20 19 20 20
28 30 30 30 29 29 25 28 29 28 25 23 28 25 25 27 27 27 29 30 30 31 33 34 29 27 27 28 26 26 26 25 23 23 22 21 20 20 20 20 20 20 20 20
26 28 28 28 29 30 27 28 28 28 25 25 26 23 24 28 26 26 28 30 30 31 32 31 31 29 29 28 27 26 26 25 24 23 22 21 20 20 20 20 20 20 20 20
27 30 29 29 31 31 30 28 26 25 24 22 25 24 24 25 27 26 28 29 30 29 29 27 28 29 30 28 26 25 26 25 24 23 22 22 21 20 20 20 20 20 20 20
27 28 30 32 30 30 29 24 20 20 20 22 24 24 24 26 27 26 26 28 26 28 27 26 24 28 26 26 26 26 25 25 24 23 22 22 22 21 21 21 21 21 21 20
24 23 27 29 28 27 26 25 20 22 21 23 24 25 22 21 19 18 21 22 25 27 26 22 23 22 26 27 26 26 25 25 24 23 23 22 22 21 21 21 21 21 21 21
24 24 27 28 29 28 26 24 25 23 24 22 24 25 24 21 19 19 18 18 20 25 22 21 23 21 22 23 25 26 24 24 24 24 23 23 21 21 21 21 21 22 22 21
24 21 25 28 28 28 27 27 23 21 21 20 22 21 19 18 18 18 18 18 20 24 25 20 22 20 20 21 21 23 25 25 25 23 23 23 22 21 21 21 21 21 21 21
25 22 22 25 24 24 25 23 23 22 21 20 19 20 20 20 18 17 16 19 20 21 23 15 19 19 23 24 22 20 25 24 24 23 22 22 22 21 20 22 21 21 21 21
24 22 19 21 24 26 26 25 23 19 20 19 19 20 21 20 19 17 17 18 19 19 19 20 17 19 16 14 18 24 25 25 23 22 21 21 21 21 20 21 22 21 22 21
24 20 18 19 21 25 23 24 24 21 20 20 19 19 21 19 19 18 16 17 17 17 18 18 19 20 16 17 19 22 23 22 21 20 21 21 21 21 21 21 21 22 21 21
24 20 19 18 20 22 22 24 24 22 21 20 20 22 19 17 17 17 17 17 18 18 17 17 16 15 16 18 19 20 20 23 21 20 21 20 20 19 19 20 20 21 22 22
21 20 20 21 23 23 23 23 24 23 23 22 19 18 17 17 15 16 17 18 17 17 18 15 16 15 16 20 20 21 20 18 20 21 19 19 18 17 18 17 17 17 19 22
20 18 19 19 22 23 23 24 24 24 22 21 20 17 15 17 17 16 17 18 18 18 19 16 16 15 16 19 20 20 18 17 16 19 18 18 17 16 16 17 17 16 14 18
18 18 18 18 20 21 20 20 20 18 17 19 17 17 16 17 16 13 15 17 18 18 17 16 16 15 15 17 18 18 20 19 16 17 17 18 18 19 19 19 17 17 17 15
18 16 18 18 18 18 19 18 18 18 18 17 17 17 19 19 14 15 16 16 16 17 16 15 16 15 15 16 17 17 17 21 17 16 16 18 18 17 18 19 19 19 16 14
21 19 18 16 17 19 20 17 15 14 16 17 16 16 19 19 16 15 15 15 16 16 16 16 15 15 15 15 15 16 16 16 15 15 15 16 16 18 16 17 16 17 18 18
17 15 14 14 15 16 16 18 18 15 16 18 18 16 17 16 14 13 16 15 15 16 15 16 15 15 14 14 14 15 14 14 14 13 14 15 15 15 15 16 17 15 15 17
18 17 16 14 15 17 17 17 18 16 15 13 13 17 16 15 14 16 15 14 14 15 15 15 15 14 14 14 15 13 13 12 12 13 14 14 14 15 15 15 15 15 16 17
17 15 15 15 15 16 17 17 17 15 15 16 16 17 16 15 14 14 14 15 14 15 15 14 14 14 14 14 15 15 15 14 15 15 15 14 14 14 14 15 15 15 16 16
17 16 15 15 15 17 18 18 17 16 16 17 17 16 16 16 15 14 16 14 14 15 14 14 14 14 14 13 13 14 14 14 15 15 15 14 14 14 14 14 14 14 14 14
17 19 16 17 18 19 19 18 17 17 17 17 16 15 15 15 15 14 13 13 14 14 14 14 14 14 14 13 13 13 13 13 13 14 14 13 13 14 14 14 14 14 15 15
18 19 18 17 17 19 19 17 17 17 16 16 15 14 14 14 14 14 13 13 13 14 14 14 14 14 13 13 13 13 14 13 13 13 13 14 14 14 14 14 14 14 14 14
19 18 17 15 19 18 17 17 16 16 16 15 15 14 13 13 13 13 13 13 13 13 13 13 13 13 13 13 13 13 13 13 13 13 13 13 14 14 14 14 14 14 14 14
Height
1474 1484 1492 1480 1473 1470 1469 1472 1471 1459 1448 1448 1449 1443 1439 1432 1431 1432 1429 1431 1432 1435 1436 1439 1445 1452 1458 1463 1466 1471 1477 1483 1489 1493 1497 1502 1505 1511 1515 1518 1520 1523 1526 1529
1478 1486 1468 1463 1462 1462 1462 1467 1467 1454 1445 1445 1447 1447 1437 1431 1428 1427 1427 1426 1427 1431 1433 1436 1441 1446 1450 1453 1458 1464 1468 1473 1480 1485 1490 1496 1501 1505 1510 1515 1518 1520 1523 1526
1477 1465 1455 1455 1456 1459 1460 1465 1462 1460 1444 1440 1444 1452 1444 1429 1422 1420 1422 1424 1422 1425 1429 1431 1436 1439 1444 1449 1451 1455 1460 1465 1472 1480 1486 1492 1499 1504 1506 1509 1513 1515 1519 1521
1463 1454 1454 1453 1455 1454 1473 1452 1450 1451 1463 1480 1445 1475 1452 1434 1432 1427 1424 1422 1422 1422 1425 1426 1428 1433 1435 1439 1444 1450 1454 1458 1464 1473 1478 1484 1489 1492 1496 1502 1507 1511 1514 1516
1469 1460 1458 1458 1454 1448 1459 1449 1452 1450 1459 1462 1455 1473 1453 1431 1435 1429 1425 1423 1423 1422 1418 1426 1424 1419 1425 1431 1434 1440 1448 1453 1457 1465 1472 1478 1485 1490 1494 1498 1502 1505 1508 1511
1460 1450 1449 1448 1443 1443 1444 1449 1452 1452 1460 1487 1453 1461 1458 1442 1433 1427 1420 1417 1418 1419 1414 1418 1419 1413 1415 1423 1429 1435 1442 1446 1450 1457 1465 1472 1478 1483 1488 1492 1497 1500 1503 1506
1460 1449 1433 1444 1447 1442 1445 1463 1496 1499 1495 1488 1447 1456 1450 1429 1421 1422 1422 1421 1420 1414 1409 1422 1410 1406 1408 1413 1419 1425 1432 1437 1442 1448 1457 1465 1471 1477 1481 1486 1491 1495 1497 1500
1483 1483 1454 1447 1451 1453 1454 1457 1493 1502 1499 1477 1446 1459 1464 1440 1434 1434 1428 1426 1422 1419 1422 1429 1420 1421 1402 1404 1411 1417 1423 1428 1432 1438 1446 1455 1463 1470 1477 1482 1486 1489 1491 1494
1483 1476 1452 1451 1446 1447 1453 1464 1447 1468 1458 1471 1456 1443 1431 1439 1435 1434 1432 1424 1419 1421 1430 1423 1426 1424 1424 1430 1412 1414 1419 1426 1427 1429 1437 1446 1454 1462 1469 1477 1481 1485 1488 1490
1470 1488 1462 1452 1447 1441 1449 1440 1464 1468 1490 1492 1468 1467 1472 1454 1445 1440 1428 1423 1423 1419 1419 1416 1421 1425 1424 1421 1428 1428 1420 1419 1422 1428 1434 1442 1448 1455 1463 1472 1475 1480 1483 1486
1465 1477 1476 1461 1462 1465 1455 1458 1456 1459 1470 1491 1492 1475 1453 1452 1448 1443 1437 1431 1428 1426 1421 1426 1431 1424 1414 1414 1426 1431 1422 1419 1422 1427 1433 1440 1446 1451 1458 1466 1471 1475 1480 1483
1468 1476 1491 1479 1458 1450 1450 1453 1458 1485 1483 1475 1477 1475 1445 1443 1445 1445 1441 1436 1434 1437 1427 1426 1429 1425 1444 1436 1428 1417 1417 1413 1418 1423 1433 1439 1446 1452 1455 1459 1465 1470 1474 1477
1468 1485 1501 1487 1467 1449 1456 1453 1453 1459 1462 1474 1482 1473 1442 1442 1433 1442 1445 1434 1431 1437 1430 1426 1428 1427 1451 1462 1440 1419 1419 1423 1427 1430 1430 1438 1444 1448 1449 1456 1462 1469 1472 1475
1466 1477 1489 1500 1488 1470 1467 1458 1453 1457 1470 1466 1462 1448 1448 1446 1440 1445 1444 1437 1426 1430 1429 1437 1445 1449 1456 1451 1426 1417 1420 1425 1429 1432 1435 1440 1445 1446 1450 1455 1461 1463 1463 1468
1469 1481 1477 1474 1467 1463 1462 1458 1454 1455 1450 1456 1458 1459 1454 1451 1450 1452 1449 1442 1441 1430 1424 1432 1444 1459 1457 1436 1423 1419 1423 1428 1431 1427 1424 1431 1437 1439 1443 1447 1451 1459 1464 1463
1469 1482 1475 1478 1467 1463 1461 1452 1447 1443 1446 1447 1449 1459 1452 1448 1449 1451 1448 1443 1440 1444 1443 1446 1446 1449 1449 1440 1433 1431 1427 1427 1432 1435 1427 1432 1436 1439 1440 1445 1444 1444 1443 1459
1474 1477 1481 1482 1468 1464 1474 1463 1456 1459 1458 1455 1461 1455 1448 1446 1445 1446 1448 1445 1443 1443 1438 1443 1443 1444 1440 1432 1427 1426 1421 1421 1433 1437 1437 1432 1435 1434 1436 1438 1439 1442 1436 1434
1467 1473 1473 1475 1472 1490 1469 1462 1461 1459 1459 1458 1455 1452 1448 1446 1446 1441 1446 1448 1442 1442 1442 1445 1443 1443 1439 1431 1426 1429 1424 1414 1444 1445 1444 1434 1427 1429 1428 1426 1427 1438 1441 1429
1447 1457 1470 1479 1479 1464 1457 1464 1469 1470 1463 1455 1454 1449 1447 1445 1445 1447 1446 1445 1443 1443 1444 1446 1443 1438 1435 1433 1428 1428 1431 1422 1434 1442 1442 1434 1430 1427 1428 1416 1422 1436 1444 1445
1452 1458 1471 1483 1490 1487 1473 1462 1461 1462 1464 1455 1451 1447 1447 1445 1450 1449 1447 1450 1449 1447 1445 1448 1447 1444 1443 1440 1435 1438 1434 1438 1438 1441 1439 1439 1437 1431 1426 1424 1427 1435 1443 1441
1461 1464 1471 1478 1485 1468 1462 1462 1458 1468 1466 1453 1460 1448 1444 1449 1451 1446 1446 1450 1450 1448 1442 1448 1448 1449 1447 1444 1442 1442 1443 1444 1446 1444 1447 1444 1437 1435 1430 1433 1437 1436 1437 1435
1463 1475 1472 1474 1476 1475 1459 1460 1463 1460 1455 1451 1451 1448 1445 1445 1444 1444 1442 1444 1447 1447 1447 1449 1450 1449 1448 1448 1447 1447 1446 1446 1446 1446 1444 1441 1438 1439 1436 1434 1437 1432 1432 1434
1464 1461 1470 1468 1467 1453 1454 1453 1455 1456 1456 1451 1449 1447 1447 1445 1445 1447 1445 1444 1441 1447 1451 1451 1451 1451 1451 1452 1451 1450 1448 1448 1447 1446 1441 1441 1441 1444 1441 1438 1437 1435 1435 1430
1456 1454 1461 1460 1453 1450 1449 1451 1451 1452 1451 1448 1448 1449 1447 1446 1447 1447 1447 1447 1447 1447 1450 1451 1452 1454 1454 1454 1453 1452 1451 1449 1447 1446 1445 1445 1442 1442 1442 1441 1441 1442 1438 1436
1455 1451 1452 1454 1450 1448 1447 1446 1447 1448 1447 1446 1447 1449 1449 1448 1449 1450 1450 1451 1449 1448 1449 1451 1453 1454 1455 1455 1453 1451 1449 1449 1448 1446 1446 1444 1445 1443 1441 1440 1441 1441 1437 1436
1452 1452 1454 1457 1448 1446 1445 1445 1445 1446 1446 1446 1447 1449 1450 1449 1449 1449 1449 1449 1450 1450 1451 1453 1453 1454 1455 1454 1453 1452 1450 1448 1447 1446 1445 1445 1445 1444 1446 1446 1442 1440 1440 1441
Wind_Speed
12 4 8 13 13 17 15 16 17 13 13 14 14 12 12 15 17 16 21 24 33 42 50 54 52 51 48 47 45 43 44 43 39 38 39 40 40 38 36 29 21 21 21 22
6 8 15 17 18 16 16 12 11 12 11 9 9 10 11 12 11 18 18 20 12 18 19 50 55 54 51 52 49 47 43 43 41 39 38 39 37 35 33 34 29 27 24 22
9 13 14 16 14 10 7 7 9 15 7 8 7 8 9 12 20 26 27 25 25 22 18 37 51 56 53 54 54 49 47 44 44 40 37 36 32 29 29 30 32 29 28 26
8 9 11 9 6 7 7 9 13 14 8 4 4 13 7 7 6 7 16 24 25 19 17 20 42 57 57 55 56 52 47 45 46 42 40 39 39 36 34 30 30 30 27 27
10 13 12 12 8 5 6 9 8 8 9 4 16 2 8 2 6 6 6 17 22 31 9 27 33 54 59 58 59 57 50 47 48 46 43 40 38 35 30 28 25 29 28 28
13 26 13 12 13 2 7 7 9 7 5 4 17 5 6 4 6 6 7 20 13 22 28 39 46 51 61 62 59 57 53 51 48 48 45 42 38 36 33 30 29 29 29 28
11 11 8 4 2 5 5 6 5 6 5 6 6 1 6 4 6 7 7 15 19 23 40 44 39 51 56 60 60 58 57 54 50 48 46 44 42 39 35 33 29 28 31 30
4 9 20 19 11 6 7 5 4 7 6 10 8 8 8 13 28 29 29 27 18 15 39 33 39 16 55 63 62 59 58 56 52 49 47 46 44 40 37 30 31 30 29 27
3 7 18 17 18 11 7 5 9 5 8 6 3 6 7 16 16 17 15 20 29 35 30 24 31 13 9 12 54 56 56 54 53 50 47 46 48 43 40 35 33 32 30 26
6 6 8 19 16 10 7 8 4 4 5 6 5 4 3 7 8 6 12 19 24 32 33 27 22 24 11 9 16 44 51 51 51 48 45 45 48 46 42 38 35 34 33 28
5 1 8 11 6 13 12 5 5 1 3 2 4 3 7 1 4 9 9 13 16 15 29 31 19 8 2 13 31 36 52 49 48 46 44 40 42 47 41 38 38 34 29 29
4 2 4 12 16 18 7 3 3 4 6 3 3 3 7 6 5 2 18 27 30 24 21 20 24 21 8 20 44 41 54 49 48 44 40 37 37 42 38 38 40 41 34 29
2 2 5 10 9 4 7 10 9 2 1 5 5 6 4 8 11 15 15 26 26 19 18 18 18 18 5 25 23 11 19 30 33 35 34 31 31 34 42 40 38 35 34 31
7 5 6 7 10 12 15 14 13 10 5 6 7 9 6 6 8 8 13 19 19 18 15 16 19 14 2 8 22 20 11 11 19 25 21 20 23 22 28 32 36 37 38 35
3 2 6 11 15 15 18 19 18 16 13 11 7 6 5 6 5 7 9 13 15 10 9 16 18 9 7 17 27 20 19 16 6 15 12 16 16 9 12 9 9 14 44 37
6 5 6 8 12 16 18 18 17 17 6 7 11 2 7 8 7 9 12 12 16 12 8 3 8 11 5 18 20 19 20 22 16 7 4 11 15 1 6 12 20 14 26 24
5 5 5 12 10 12 11 13 11 9 8 3 4 3 4 4 12 11 18 14 12 6 10 9 8 7 12 13 16 17 15 14 21 13 6 8 12 18 13 19 16 18 41 48
11 7 6 12 7 9 4 14 13 4 4 2 1 6 6 5 17 14 11 11 14 11 5 9 6 8 8 12 15 10 10 19 8 6 6 1 8 4 8 6 7 5 19 26
15 9 4 2 1 8 4 10 4 4 4 4 5 6 8 13 7 11 10 5 10 8 9 9 9 11 13 13 13 9 8 10 1 2 3 5 6 3 6 10 15 15 26 16
10 9 5 3 3 4 3 8 6 6 3 6 8 6 7 11 4 3 2 9 6 8 10 7 8 11 13 15 17 15 16 17 17 11 8 3 2 1 1 3 8 17 24 19
3 2 4 5 5 3 1 7 14 4 2 8 34 4 7 1 6 1 3 2 5 7 14 7 10 11 10 10 13 18 18 18 15 16 15 13 15 11 6 4 10 11 14 18
4 3 1 1 4 4 4 2 2 2 7 11 12 5 2 4 4 4 3 3 5 11 12 11 13 12 11 11 13 17 17 16 17 16 17 18 18 16 14 13 11 5 10 12
1 4 3 6 4 7 8 6 4 7 4 7 9 7 7 6 1 2 6 7 10 12 12 12 9 9 9 10 10 12 14 15 14 15 18 18 19 17 20 20 15 12 11 14
3 4 2 3 1 5 5 1 4 2 6 6 7 7 4 7 6 9 10 14 15 13 13 11 10 8 9 8 9 9 9 10 11 13 15 15 16 15 17 17 19 20 16 12
2 1 2 2 9 8 9 3 6 6 6 1 1 1 2 4 6 9 12 12 12 11 12 12 12 10 9 5 4 5 6 6 7 11 9 11 9 12 14 14 13 15 16 16
2 2 1 3 8 7 3 5 6 7 3 2 6 6 4 5 6 6 7 10 10 11 10 7 7 6 5 5 7 8 10 11 9 6 6 10 9 8 9 11 10 10 12 8
Wind_Direction
263 189 230 234 231 241 254 262 273 286 297 301 297 294 297 300 308 308 261 195 201 197 200 199 199 196 198 202 202 203 207 214 215 216 213 210 213 208 209 200 213 223 229 228
262 240 237 239 251 251 249 260 276 277 280 285 298 299 300 299 286 286 286 289 258 224 209 194 193 193 199 203 205 204 209 213 214 212 212 214 211 211 209 207 207 222 228 229
222 245 254 249 244 260 279 302 296 299 271 301 316 309 286 281 285 284 289 304 279 277 253 189 185 193 199 203 206 208 209 214 216 213 212 213 214 216 216 211 208 216 226 231
268 293 291 292 306 300 295 293 322 321 358 290 320 293 290 270 329 4 346 338 336 324 290 224 196 193 198 210 210 207 211 213 216 214 214 211 209 208 213 213 210 213 223 230
280 303 303 307 292 306 286 319 317 304 296 320 286 270 280 2 315 287 309 305 314 308 305 334 226 206 204 209 209 209 210 213 216 215 216 213 211 214 215 215 211 216 222 231
271 271 259 244 260 263 259 270 285 285 268 300 267 172 270 298 266 282 277 297 293 331 341 338 333 213 206 206 207 208 207 212 216 216 215 215 211 210 210 218 215 220 223 231
312 304 290 305 260 342 304 2 324 336 350 267 321 323 226 266 282 235 298 329 358 350 348 349 344 201 189 196 207 210 206 211 214 216 214 216 215 211 213 212 216 217 220 225
344 319 25 339 324 261 274 187 189 276 284 284 316 279 15 28 49 45 38 20 360 350 337 342 348 314 190 201 206 211 209 209 212 214 214 215 215 214 212 213 214 220 223 230
358 300 335 327 320 321 298 301 230 266 283 290 254 337 17 13 23 12 23 35 11 354 354 354 344 323 230 213 202 213 212 212 215 216 215 211 215 215 212 210 216 221 225 230
3 328 316 311 321 311 346 299 4 336 339 310 342 107 244 335 349 327 2 357 9 356 349 15 1 336 287 280 250 220 219 216 218 219 218 215 214 215 216 208 214 221 225 230
1 302 310 329 325 326 328 343 3 48 102 229 319 311 139 270 337 326 324 347 5 16 357 44 52 320 235 290 287 256 222 221 220 220 220 219 215 215 218 215 214 222 223 229
67 308 312 303 301 291 293 48 98 112 289 239 188 262 139 117 55 328 304 320 335 352 12 347 25 42 209 253 282 237 224 223 223 218 216 218 220 215 216 221 221 224 227 223
96 327 331 321 318 323 44 337 327 234 91 226 253 264 137 51 31 11 3 6 5 9 27 25 22 22 4 270 321 218 216 213 212 210 211 218 222 220 220 218 221 223 223 224
155 186 200 254 255 282 308 322 319 309 297 276 230 263 31 8 47 310 327 1 12 13 26 37 36 40 64 17 38 51 30 221 222 223 215 219 219 223 220 225 226 228 226 223
51 330 311 300 306 314 311 306 298 288 289 288 9 74 4 339 317 293 322 4 40 51 50 323 342 323 43 55 53 51 35 29 287 230 189 191 180 204 201 148 197 269 235 223
334 300 298 289 289 288 295 298 299 291 9 35 85 110 244 281 307 317 328 336 329 313 320 359 0 342 8 59 55 59 52 46 33 318 218 205 199 261 342 309 273 328 309 212
285 276 287 276 280 285 297 344 10 72 34 359 65 283 204 296 72 36 13 12 16 359 343 18 32 356 21 23 46 55 67 46 13 10 247 199 234 239 272 315 301 291 293 279
247 231 247 262 280 276 100 32 41 81 50 2 286 303 331 17 103 71 43 25 31 21 41 16 29 40 50 40 41 54 63 45 1 356 317 299 46 342 236 206 204 279 312 300
234 226 228 229 314 312 31 29 31 54 290 266 241 285 330 351 82 63 56 44 47 53 53 33 48 47 54 54 63 54 46 79 136 10 12 10 324 331 116 102 209 245 229 280
86 81 92 62 44 268 38 332 301 163 276 308 25 36 350 19 44 262 26 53 58 100 85 70 68 85 80 82 86 97 83 77 75 75 49 41 173 147 173 282 207 247 255 264
349 338 136 136 224 252 237 311 303 258 258 12 307 15 18 48 288 177 49 146 67 76 92 111 93 84 79 82 99 100 104 94 92 87 85 69 58 51 37 282 270 273 274 263
152 215 342 307 220 229 189 248 15 216 268 264 271 313 161 290 307 231 100 72 95 95 105 104 98 87 67 60 80 79 77 73 74 73 70 68 65 57 57 46 27 336 271 256
163 163 183 163 228 270 196 229 295 268 309 335 332 311 288 243 188 170 138 126 123 114 111 110 107 90 62 56 61 63 58 54 53 50 43 41 46 45 44 45 45 43 50 70
288 292 227 27 256 334 29 110 85 357 263 279 298 261 247 239 196 161 126 136 140 130 121 122 123 114 96 74 61 61 62 44 39 47 41 36 32 31 41 50 51 51 57 56
159 72 226 249 275 270 317 175 285 302 260 293 170 156 102 131 137 156 146 142 128 133 128 124 121 121 107 102 72 35 35 41 48 46 32 5 32 27 22 35 39 34 34 39
78 232 130 228 293 268 176 242 278 288 248 100 133 133 127 182 152 157 139 134 138 129 136 135 121 127 111 106 82 48 24 20 4 11 0 356 357 36 12 9 18 26 11 14